TimeEDT,TemperatureF,Dew PointF,Humidity,Sea Level PressureIn,VisibilityMPH,Wind Direction,Wind SpeedMPH,Gust SpeedMPH,PrecipitationIn,Events,Conditions,WindDirDegrees,DateUTC
12:53 AM,75.0,70.0,84,30.07,10.0,ESE,13.8,-,N/A,,Scattered Clouds,110,2012-05-02 04:53:00
1:53 AM,75.0,70.0,84,30.05,10.0,ESE,15.0,-,N/A,,Overcast,120,2012-05-02 05:53:00
2:53 AM,73.9,70.0,87,30.03,10.0,ESE,12.7,-,N/A,,Clear,110,2012-05-02 06:53:00
3:53 AM,73.9,71.1,91,30.02,10.0,ESE,13.8,-,N/A,,Overcast,110,2012-05-02 07:53:00
4:53 AM,73.9,71.1,91,30.02,10.0,ESE,13.8,-,N/A,,Mostly Cloudy,120,2012-05-02 08:53:00
5:53 AM,73.0,71.1,93,30.03,10.0,ESE,15.0,-,N/A,,Mostly Cloudy,120,2012-05-02 09:53:00
6:53 AM,73.0,70.0,90,30.04,10.0,ESE,13.8,-,N/A,,Partly Cloudy,120,2012-05-02 10:53:00
7:53 AM,73.0,70.0,90,30.06,10.0,ESE,13.8,-,N/A,,Clear,120,2012-05-02 11:53:00
8:53 AM,75.9,71.1,85,30.07,10.0,SE,13.8,-,N/A,,Clear,130,2012-05-02 12:53:00
9:53 AM,79.0,70.0,74,30.08,10.0,SE,15.0,-,N/A,,Clear,130,2012-05-02 13:53:00
10:53 AM,81.0,69.1,67,30.08,10.0,SE,16.1,-,N/A,,Clear,130,2012-05-02 14:53:00
11:53 AM,82.9,70.0,65,30.08,10.0,ESE,11.5,-,N/A,,Clear,120,2012-05-02 15:53:00
12:53 PM,84.9,69.1,59,30.06,10.0,SE,12.7,-,N/A,,Clear,130,2012-05-02 16:53:00
1:53 PM,87.1,69.1,55,30.06,10.0,ESE,9.2,-,N/A,,Partly Cloudy,120,2012-05-02 17:53:00
2:53 PM,87.1,71.1,59,30.04,10.0,ESE,6.9,-,N/A,,Partly Cloudy,110,2012-05-02 18:53:00
3:53 PM,86.0,73.0,65,30.01,10.0,East,4.6,-,N/A,,Scattered Clouds,90,2012-05-02 19:53:00
4:53 PM,84.9,66.9,55,29.99,10.0,SSW,8.1,-,0.00,,Mostly Cloudy,200,2012-05-02 20:53:00
5:53 PM,84.9,68.0,57,29.99,10.0,East,3.5,-,0.00,Rain,Light Rain,80,2012-05-02 21:53:00
6:53 PM,84.9,66.9,55,29.99,10.0,Calm,Calm,-,0.00,,Mostly Cloudy,0,2012-05-02 22:53:00
7:53 PM,82.0,68.0,62,30.00,10.0,West,5.8,-,N/A,,Mostly Cloudy,280,2012-05-02 23:53:00
9:53 PM,80.1,69.1,69,30.05,10.0,Calm,Calm,-,N/A,,Overcast,0,2012-05-03 01:53:00
10:53 PM,80.1,69.1,69,30.07,10.0,ESE,18.4,-,N/A,,Overcast,120,2012-05-03 02:53:00
11:53 PM,78.1,69.1,74,30.09,10.0,SE,19.6,-,N/A,,Partly Cloudy,130,2012-05-03 03:53:00